Location: Clarks Summit,Pa.
(41.5000°N, 75.6000°W)
Time: 10:16:24
(UTC-05:00)

Envisat - Pass Details

Date: 26 November 2018
Orbit: 764 x 766 km, 98.2° (Epoch: 11 December)

Event Time Altitude Azimuth Distance (km) Brightness Sun altitude
Rises 18:41:02 0° 160° (SSE) 3,218 6.1 -23.1°
Reaches altitude 10° 18:43:20 10° 158° (SSE) 2,296 5.3 -23.6°
Enters shadow 18:43:30 11° 158° (SSE) 2,232 5.3 -23.6°
Exits shadow 18:47:16 53° 138° (SE) 932 3.2 -24.3°
Maximum altitude 18:48:22 72° 75° (ENE) 805 2.8 -24.5°
Drops below altitude 10° 18:53:27 10° 351° (N) 2,311 5.5 -25.4°
Sets 18:55:46 0° 350° (N) 3,241 6.3 -25.9°
